{"data":{"norad_id":57982,"epoch":"2026-09-20T15:56:43.618272Z","epoch_age_seconds":123599,"freshness":"FRESH","line1":"1 57982U 23151U   26263.66439373  .00008264  00000+0  30942-3 0  9993","line2":"2 57982  43.0043 332.8578 0002087 270.3120  89.7493 15.27588287165369","mean_motion":15.27588287,"eccentricity":0.0002087,"inclination_deg":43.0043,"raan_deg":332.8578,"arg_perigee_deg":270.312,"mean_anomaly_deg":89.7493,"bstar":0.00030942,"rev_number":16536,"period_min":94.266237326812,"perigee_km":481.59235753307,"apogee_km":484.45620625213,"semimajor_km":6861.1612818926,"source":"CELESTRAK","updated_at":"2026-09-21T09:00:33.752071Z"}}